Terug naar catalogus

HUBBLE 6

ActiefWetenschapSSO
NORAD 64562·PAYLOAD·🇺🇸 United States

Gelanceerd Jun 23, 2025 vanaf Vandenberg Space Force Base

Loading…

Volgende Passages (komende 24 uur)

TLE

VersSource: Space-Track

Epoch: Sep 14, 2026, 13:16 UTC

1 64562U 25135AL  26257.55334106  .00001121  00000-0  11129-3 0  9990
2 64562  97.7820  10.7941 0001560 103.3671 256.7723 14.93712974 67218

Volg HUBBLE 6 in realtime met AllMySat

Download on the App Store